TITAN 3C TRANSTAGE DEB, 26524

Orbit data source: Space-Track

TITAN 3C TRANSTAGE DEB, 26524 is space debris in HEO originally from a launch on Tue, 21 Dec 1965 UTC launched from the Air Force Eastern Test Range (AFETR). Debris objects in space refer to the collection of defunct objects orbiting the Earth. Examples of debris include non-operational satellites, rocket bodies, and fragments generated from explosions, collisions, or faulty payload assembly.

Loading next visibility...
Identifier
26524, 1965-108AK
Orbit
HEO
Country
Flag of USUS
Related business
Manufacturer
Unknown
Mission
Spacecraft
Bus & Motor
Unknown
Mass
Unknown
Launch date (UTC)
1965-12-21 (61 years ago)
Launch vehicle
Unknown
Launch site
Air Force Eastern Test Range (AFETR)
Object type
Payload
Rocket body
Debris
Shape & HBR
Unknown shape, 0.1 m
Radar Cross Section
Medium (>0.1 m² and <1 m²)

Expand to show TLE details & history
Last TLE update: 3 days ago

TLE from 3 days ago
0 TITAN 3C TRANSTAGE DEB
1 26524U 65108AK  26197.58870818 -.00000075  00000-0  57082-3 0  9997
2 26524  26.7772  76.7346 6680405 214.6166 349.6120  2.81768966 44680
Epoch: 2026-07-16T14:07Z
TLE epoch observation values (Epoch: 2026-07-16T14:07:44.386Z)
Latitude
11.3261°
Longitude
87.19547°
Altitude
2,412.522 km
Speed
8.477 km/s
True Right ascension
15h 34m 14s
True Declination
11° 16' 21"
Sunlit
Object was in daylight at epoch
Visualization orbit readout
Latitude
Unknown
Longitude
Unknown
Altitude
Unknown
Speed
Unknown
Apparent Right ascension
Unknown
Apparent Declination
Unknown
Sunlit
N/A
Visualization observer readout
Local Sidereal Time
19:58:17
Azimuth
Unknown
Elevation
Unknown
Doppler factor
Unknown
Orbital elements
Apogee altitude
28,947.116 km
Perigee altitude
652 km
Semi-major axis
21,177.695 km
Eccentricity
0.66804
Inclination
26.7772°
RAAN
76.7346°
Arg. of periapsis
214.6166°
True anomaly
300.03578°
Mean anomaly
349.612°
Eccentric anomaly
331.13356°
Mean motion
0.70425 °/min
Orbital period
511.18 mins
BSTAR
0.00057082
Loading maneuver chart data...
Computing Atmospheric mass density...

Documentation

Showing up to 5 results
|